User: anonymous   Login
Location: Bismarck
(46.7731°N, 100.8200°W)
Time: 00:17:23
(UTC-05:00)
Language:

Cosmos 1125 Rocket - Orbit

View from above orbital plane
View from above orbital plane
View from above satellite
View from above satellite

Ground track
Ground track

The orbit data is extracted from the following two-line orbital elements,

1 11511U 79078B   15180.49783206  .00000111  00000-0  46580-4 0  9994
2 11511 074.0349 196.1226 0016946 256.9750 102.9511 14.36631710875400
Epoch (UTC): 29 June 2015 11:56:52
Eccentricity: 0.0016946
inclination: 74.0349°
perigee height: 757 km
apogee height: 782 km
right ascension of ascending node: 196.1226°
argument of perigee: 256.9750°
revolutions per day: 14.36631710
mean anomaly at epoch: 102.9511°
orbit number at epoch: 87540

The dashed part of the orbit path shows where the satellite is in the earth's shadow,  

DLR